timestamp,surface_pressure_avg,surface_temp_avg,battery_voltage,lat,long
2019-12-16 00:09:01+00:00,304.5997,3.53,12.65,47.84626,-54.09684
2019-12-16 00:19:01+00:00,308.473,3.4,12.65,47.84626,-54.09684
2019-12-16 00:29:01+00:00,309.9163,3.59,12.65,47.84626,-54.09684
2019-12-16 00:39:01+00:00,317.6447,3.48,12.65,47.84626,-54.09684
2019-12-16 00:49:01+00:00,330.7579,3.39,12.65,47.84626,-54.09684
2019-12-16 00:59:01+00:00,339.6396,3.52,12.65,47.84626,-54.09684
2019-12-16 01:09:01+00:00,338.218,3.55,12.65,47.84626,-54.09684
2019-12-16 01:19:01+00:00,346.4663,3.49,12.65,47.84626,-54.09684
2019-12-16 01:29:01+00:00,359.2029,3.69,12.65,47.84626,-54.09684
2019-12-16 01:39:01+00:00,358.0096,3.6,12.65,47.84626,-54.09684
2019-12-16 01:49:01+00:00,353.9562,3.4,12.65,47.84626,-54.09684
2019-12-16 01:59:01+00:00,356.4246,3.4,12.65,47.84626,-54.09684
2019-12-16 02:09:01+00:00,356.2279,3.47,12.65,47.84626,-54.09684
2019-12-16 02:19:01+00:00,356.5013,3.58,12.65,47.84626,-54.09684
2019-12-16 02:29:01+00:00,346.1697,3.6,12.65,47.84626,-54.09684
2019-12-16 02:39:01+00:00,335.5096,3.67,12.65,47.84626,-54.09684
2019-12-16 02:49:01+00:00,339.5080000000001,3.7,12.65,47.84626,-54.09684
2019-12-16 02:59:01+00:00,335.6280000000001,3.6,12.65,47.84626,-54.09684
2019-12-16 03:09:01+00:00,332.7581,3.65,12.65,47.84626,-54.09684
2019-12-16 03:19:01+00:00,336.028,3.6,12.65,47.84626,-54.09684
2019-12-16 03:29:01+00:00,340.1996,3.5,12.65,47.84626,-54.09684
2019-12-16 03:39:01+00:00,331.6964,3.46,12.65,47.84626,-54.09684
2019-12-16 03:49:01+00:00,329.3130000000001,3.45,12.65,47.84626,-54.09684
2019-12-16 03:59:01+00:00,333.2914,3.42,12.65,47.84626,-54.09684
2019-12-16 04:09:01+00:00,330.8495,3.46,12.65,47.84626,-54.09684
2019-12-16 04:19:01+00:00,324.0896,3.49,12.65,47.84626,-54.09684
2019-12-16 04:29:01+00:00,319.288,3.49,12.65,47.84626,-54.09684
2019-12-16 04:39:01+00:00,316.178,3.4,12.65,47.84626,-54.09684
2019-12-16 04:49:01+00:00,309.3781,3.41,12.65,47.84626,-54.09684
2019-12-16 04:59:01+00:00,306.298,3.45,12.65,47.84626,-54.09684
2019-12-16 05:09:01+00:00,300.5097,3.43,12.65,47.84626,-54.09684
2019-12-16 05:19:01+00:00,292.313,3.42,12.65,47.84626,-54.09684
2019-12-16 05:29:01+00:00,283.4147,3.45,12.65,47.84626,-54.09684
2019-12-16 05:39:01+00:00,275.4031,3.4,12.65,47.84626,-54.09684
2019-12-16 05:49:01+00:00,262.7114,3.3,12.65,47.84626,-54.09684
2019-12-16 05:59:01+00:00,251.8614,3.4,12.65,47.84626,-54.09684
2019-12-16 06:09:01+00:00,245.8498,3.4,12.65,47.84626,-54.09684
2019-12-16 06:19:01+00:00,237.1531,3.3,12.65,47.84626,-54.09684
2019-12-16 06:29:01+00:00,228.3265,3.38,12.65,47.84626,-54.09684
2019-12-16 06:39:01+00:00,224.9714,3.39,12.65,47.84626,-54.09684
2019-12-16 06:49:01+00:00,224.5248,3.4,12.65,47.84626,-54.09684
2019-12-16 06:59:01+00:00,221.3381,3.4,12.65,47.84626,-54.09684
2019-12-16 07:09:01+00:00,216.5247,3.4,12.65,47.84626,-54.09684
2019-12-16 07:19:01+00:00,215.9714,3.4,12.65,47.84626,-54.09684
2019-12-16 07:29:01+00:00,218.7398,3.46,12.65,47.84626,-54.09684
2019-12-16 07:39:01+00:00,215.3848,3.4,12.65,47.84626,-54.09684
2019-12-16 07:49:01+00:00,204.1981,3.4,12.65,47.84626,-54.09684
2019-12-16 07:59:01+00:00,202.9265,3.4,12.65,47.84626,-54.09684
2019-12-16 08:09:01+00:00,207.2365,3.44,12.65,47.84626,-54.09684
2019-12-16 08:19:01+00:00,203.7682,3.4,12.65,47.84626,-54.09684
2019-12-16 08:29:01+00:00,203.0865,3.39,12.65,47.84626,-54.09684
2019-12-16 08:39:01+00:00,207.0248,3.4,12.65,47.84626,-54.09684
2019-12-16 08:49:01+00:00,206.9998,3.4,12.65,47.84626,-54.09684
2019-12-16 08:59:01+00:00,209.0531,3.4,12.65,47.84626,-54.09684
2019-12-16 09:09:01+00:00,219.8648,3.4,12.65,47.84626,-54.09684
2019-12-16 09:19:01+00:00,226.3698,3.4,12.65,47.84626,-54.09684
2019-12-16 09:29:01+00:00,228.2765,3.4,12.65,47.84626,-54.09684
2019-12-16 09:39:01+00:00,237.7782,3.48,12.65,47.84626,-54.09684
2019-12-16 09:49:01+00:00,243.1331,3.5,12.65,47.84626,-54.09684
2019-12-16 09:59:01+00:00,241.8864,3.4,12.65,47.84626,-54.09684
2019-12-16 10:09:01+00:00,243.1198,3.43,12.65,47.84626,-54.09684
2019-12-16 10:19:01+00:00,255.5348,3.5,12.65,47.84626,-54.09684
2019-12-16 10:29:01+00:00,265.8947,3.41,12.65,47.84626,-54.09684
2019-12-16 10:39:01+00:00,268.0414,3.6,12.65,47.84626,-54.09684
2019-12-16 10:49:01+00:00,273.4514,3.6,12.65,47.84626,-54.09684
2019-12-16 10:59:01+00:00,288.8047,3.6,12.65,47.84626,-54.09684
2019-12-16 11:09:01+00:00,296.308,3.6,12.65,47.84626,-54.09684
2019-12-16 11:19:01+00:00,297.6047,3.6,12.65,47.84626,-54.09684
2019-12-16 11:29:01+00:00,309.323,3.6,12.65,47.84626,-54.09684
2019-12-16 11:39:01+00:00,317.5713,3.6,12.65,47.84626,-54.09684
2019-12-16 11:49:01+00:00,313.438,3.6,12.65,47.84626,-54.09684
2019-12-16 11:59:01+00:00,306.9979,3.6,12.65,47.84626,-54.09684
2019-12-16 12:09:01+00:00,316.118,3.6,12.65,47.84626,-54.09684
2019-12-16 12:19:01+00:00,324.4263,3.6,12.65,47.84626,-54.09684
2019-12-16 12:29:01+00:00,334.8063,3.6,12.65,47.84626,-54.09684
2019-12-16 12:39:01+00:00,345.398,3.6,12.65,47.84626,-54.09684
2019-12-16 12:49:01+00:00,345.2613,3.6,12.65,47.84626,-54.09684
2019-12-16 12:59:01+00:00,342.793,3.6,12.65,47.84626,-54.09684
2019-12-16 13:09:01+00:00,352.3463,3.6,12.65,47.84626,-54.09684
2019-12-16 13:19:01+00:00,362.5262,3.6,12.65,47.84626,-54.09684
2019-12-16 13:29:01+00:00,371.7129,3.67,12.65,47.84626,-54.09684
2019-12-16 13:39:01+00:00,376.7962,3.7,12.65,47.84626,-54.09684
2019-12-16 13:49:01+00:00,375.1163,3.7,12.65,47.84626,-54.09684
2019-12-16 13:59:01+00:00,369.3196,3.7,12.65,47.84626,-54.09684
2019-12-16 14:09:01+00:00,379.0079,3.69,12.65,47.84626,-54.09684
2019-12-16 14:19:01+00:00,389.1496,3.6,12.97,47.84626,-54.09684
2019-12-16 14:29:01+00:00,382.5796,3.59,12.97,47.84626,-54.09684
2019-12-16 14:39:01+00:00,379.8696,3.6,12.97,47.84626,-54.09684
2019-12-16 14:49:01+00:00,392.1763,3.68,12.97,47.84626,-54.09684
2019-12-16 14:59:01+00:00,392.0846,3.6,12.97,47.84626,-54.09684
2019-12-16 15:09:01+00:00,375.288,3.6,12.97,47.84626,-54.09684
2019-12-16 15:19:01+00:00,376.0762,3.54,12.89,47.84626,-54.09684
2019-12-16 15:29:01+00:00,388.6063,3.55,12.89,47.84626,-54.09684
2019-12-16 15:39:01+00:00,383.9596,3.61,12.89,47.84626,-54.09684
2019-12-16 15:49:01+00:00,375.038,3.61,12.89,47.84626,-54.09684
2019-12-16 15:59:01+00:00,382.6146,3.63,12.89,47.84626,-54.09684
2019-12-16 16:09:01+00:00,381.8829,3.69,12.89,47.84626,-54.09684
2019-12-16 16:19:01+00:00,369.8897,3.67,12.89,47.84626,-54.09684
2019-12-16 16:29:01+00:00,361.4113,3.66,12.89,47.84626,-54.09684
2019-12-16 16:39:01+00:00,363.2263,3.62,12.89,47.84626,-54.09684
2019-12-16 16:49:01+00:00,357.1931,3.65,12.89,47.84626,-54.09684
2019-12-16 16:59:01+00:00,343.0496,3.64,12.89,47.84626,-54.09684
2019-12-16 17:09:01+00:00,335.0413,3.7,12.89,47.84626,-54.09684
2019-12-16 17:19:01+00:00,329.6146,3.6,12.89,47.84626,-54.09684
2019-12-16 17:29:01+00:00,323.5163,3.61,12.89,47.84626,-54.09684
2019-12-16 17:39:01+00:00,316.9797,3.7,12.89,47.84626,-54.09684
2019-12-16 17:49:01+00:00,310.4414,3.6,12.89,47.84626,-54.09684
2019-12-16 17:59:01+00:00,300.6381,3.59,12.89,47.84626,-54.09684
2019-12-16 18:09:01+00:00,287.1198,3.7,12.89,47.84626,-54.09684
2019-12-16 18:19:01+00:00,275.7897,3.72,12.81,47.84626,-54.09684
2019-12-16 18:29:01+00:00,264.168,3.7,12.81,47.84626,-54.09684
2019-12-16 18:39:01+00:00,250.5814,3.7,12.81,47.84626,-54.09684
2019-12-16 18:49:01+00:00,240.1514,3.6,12.81,47.84626,-54.09684
2019-12-16 18:59:01+00:00,235.0848,3.6,12.81,47.84626,-54.09684
2019-12-16 19:09:01+00:00,231.2014,3.58,12.81,47.84626,-54.09684
2019-12-16 19:19:01+00:00,222.8731,3.6,12.73,47.84626,-54.09684
2019-12-16 19:29:01+00:00,217.2881,3.5,12.73,47.84626,-54.09684
2019-12-16 19:39:01+00:00,214.6981,3.45,12.73,47.84626,-54.09684
2019-12-16 19:49:01+00:00,209.2714,3.4,12.73,47.84626,-54.09684
2019-12-16 19:59:01+00:00,204.5464,3.4,12.73,47.84626,-54.09684
2019-12-16 20:09:01+00:00,197.8648,3.49,12.73,47.84626,-54.09684
2019-12-16 20:19:01+00:00,191.2998,3.4,12.65,47.84626,-54.09684
2019-12-16 20:29:01+00:00,192.2498,3.53,12.65,47.84626,-54.09684
2019-12-16 20:39:01+00:00,194.0748,3.6,12.65,47.84626,-54.09684
2019-12-16 20:49:01+00:00,194.1681,3.4,12.65,47.84626,-54.09684
2019-12-16 20:59:01+00:00,197.1665,3.3,12.65,47.84626,-54.09684
2019-12-16 21:09:01+00:00,201.6181,3.25,12.65,47.84626,-54.09684
2019-12-16 21:19:01+00:00,206.0298,3.24,12.65,47.84626,-54.09684
2019-12-16 21:29:01+00:00,206.7331,3.36,12.65,47.84626,-54.09684
2019-12-16 21:39:01+00:00,210.4731,3.5,12.65,47.84626,-54.09684
2019-12-16 21:49:01+00:00,218.2631,3.5,12.65,47.84626,-54.09684
2019-12-16 21:59:01+00:00,221.9781,3.51,12.65,47.84626,-54.09684
2019-12-16 22:09:01+00:00,221.8297,3.57,12.65,47.84626,-54.09684
2019-12-16 22:19:01+00:00,225.2615,3.5,12.57,47.84626,-54.09684
2019-12-16 22:29:01+00:00,229.9347,3.5,12.57,47.84626,-54.09684
2019-12-16 22:39:01+00:00,231.9814,3.54,12.57,47.84626,-54.09684
2019-12-16 22:49:01+00:00,232.5598,3.66,12.57,47.84626,-54.09684
2019-12-16 22:59:01+00:00,238.5697,3.7,12.57,47.84626,-54.09684
2019-12-16 23:09:01+00:00,247.3631,3.7,12.57,47.84626,-54.09684
2019-12-16 23:19:01+00:00,248.6797,3.77,12.57,47.84626,-54.09684
2019-12-16 23:29:01+00:00,245.0281,3.7,12.57,47.84626,-54.09684
2019-12-16 23:39:01+00:00,253.6747,3.7,12.57,47.84626,-54.09684
2019-12-16 23:49:01+00:00,264.6714,3.6,12.57,47.84626,-54.09684
2019-12-16 23:59:01+00:00,265.3697,3.6,12.57,47.84626,-54.09684
